Location: Piotrkow Trybunalski
(51.4000°N, 19.6830°E)
Time: 17:32:41
(UTC+01:00)

Explorer 7 - Pass Details

Date: 19 December 2025
Orbit: 433 x 550 km, 50.2° (Epoch: 17 January)

Event Time Altitude Azimuth Distance (km) Brightness Sun altitude
Rises 17:17:43 0° 266° (W) 2,477 11.8 -15.0°
Reaches altitude 10° 17:19:54 10° 264° (W) 1,586 10.5 -15.3°
Maximum altitude 17:23:27 75° 179° (S) 463 6.4 -15.8°
Enters shadow 17:24:49 34° 101° (E) 745 7.0 -16.0°
